Retour au catalogue

ONEWEB-0286

ActifCommunicationsPO
NORAD 49076·PAYLOAD·🇬🇧 United Kingdom

Lancé Aug 21, 2021 depuis Baikonur Cosmodrome

Loading…

Prochains Passages (prochaines 24 heures)

TLE

FraisSource: CelesTrak SupGP

Époque: Sep 14, 2026, 18:52 UTC

1 49076C 21075B   26257.78630048 -.00002079  00000+0 -57874-2 0  2578
2 49076  87.8973 332.8855 0002001 107.0958 313.5611 13.12442245    16

Suivez ONEWEB-0286 en temps réel avec AllMySat

Download on the App Store